Weather in Vecvarkava

Latvia     56°11′54″N   26°30′21″E
temp.,
°C
wind,
m/s
gust,
m/s
humid.,
%
clouds,
%
prec.,
mm/h
press.,
hPa
HPBL,
m
10 april, sat
sat1000:00+5ssw61363100 0.0 1013939
03:00+4ssw61469100 0.0 1013671
06:00+3ssw51275100 0.0 1013473
09:00+5ssw51171100 0.0 1013584
12:00+9sw61264100 0.1 10131452
15:00+6w51091100 1.1 10151044
18:00+6wsw378299 0.5 1017841
21:00+4sw2288100 0.6 101943
11 april, sun
sun1100:00+3w118594 0.0 102010
03:00+1ne118591 0.0 102210
06:00+1ese119399 0.0 102310
09:00+5se1385100 0.0 1024236
12:00+7se347798 0.0 1024613
15:00+9se4580100 0.0 1025609
18:00+10ese377973 0.0 1024707
21:00+8ese31092100 0.0 1024214
12 april, mon
mon1200:00+9sse4138632 0.0 1024332
03:00+7sse4138211 0.0 1024277
06:00+6sse41280100 0.0 1024287
09:00+9sse51364100 0.0 1023492
12:00+14sse6104327 0.0 10231227
15:00+15sse6103799 0.0 10211742
18:00+14s4842100 0.0 10191320
21:00+10sse31062100 0.0 1020212
13 april, tue
tue1300:00+9sse397069 0.0 1020196
03:00+8sse2573100 0.0 1019131
06:00+8sse2672100 0.0 1019150
09:00+8se2675100 0.1 1019147
12:00+13sse355132 0.0 1019533
15:00+17sse244267 0.0 10181606
18:00+13wsw2564100 0.0 1017169
21:00+11wnw2376100 0.0 101880
14 april, wed
wed1400:00+9nw2586100 0.0 1017151
03:00+8nw259597 0.0 1016173
06:00+7nnw2491100 0.0 1015184
09:00+8n2382100 0.0 1014321
12:00+12nnw2167100 0.0 1014668
15:00+14nnw3261100 0.0 10121164
18:00+11nnw5874100 0.1 1013604
21:00+7n4989100 2.4 1014505